Terminal Aerodrome Forecast
Issued by NWS Columbia, SC

Home | Current Version | Previous Version | Text Only | Print | Product List | Glossary On
Versions: 1 2 3 4 5 6 7 8 9 10 11 12 13 14 15 16 17 18 19 20 21 22 23 24 25 26 27 28 29 30 31 32 33 34 35 36 37 38 39 40 41 42 43 44 45 46 47 48 49 50
000
FTUS42 KCAE 220243 AAB
TAFAGS
TAF AMD
KAGS 220243Z 2203/2224 11006KT P6SM VCSH BKN030
     FM220600 12004KT 6SM BR OVC025
     FM220800 10003KT 2SM BR OVC004
     FM221600 12007KT P6SM BKN015
     FM222000 11007KT P6SM SCT025 BKN045=

USA.gov is the U.S. government's official web portal to all federal, state and local government web resources and services.